CMA CGM Balzac — DIHN — position and weather

sailwx.info

Track history (hours):
 
Tides and Currents Weather Stations Pressure Air Temp Water Temp Dewpoint Dewpoint Depression Visibility Wind Speed Wind Dir Waves Ship Positions

CMA CGM Balzac

Last reported at 2014-Jul-30 11:33 UTC. Time now 2014-Jul-31 03:17 UTC.
Position N 35°59' W 005°29'.

Length 300.3 m; beam 40.3 m; draft 14 m.

Type: Ship. MMSI: 211378810.

Date/timePositionNaut miles runAvg speedWind from/ knotsBaromVisibWave heightAir tempDewpointWater temp
2014-Jul-30 11:33N 35°59' W 005°29'27615.1
2014-Jul-29 17:14N 36°49' E 000°08'20416.0
2014-Jul-29 04:29N 37°22' E 004°21'1515.9
2014-Jul-29 03:32N 37°23' E 004°40'1515.7
2014-Jul-29 02:33N 37°24' E 004°59'3415.9
2014-Jul-29 00:25N 37°26' E 005°42'1416.0
2014-Jul-28 23:33N 37°27' E 005°59'1616.0
2014-Jul-28 22:33N 37°28' E 006°19'1615.9
2014-Jul-28 21:32N 37°29' E 006°40'8316.0
2014-Jul-28 16:22N 37°35' E 008°24'1517.3
2014-Jul-28 15:30N 37°36' E 008°43'1616.7
2014-Jul-28 14:33N 37°37' E 009°03'1616.5
2014-Jul-28 13:34N 37°38' E 009°23'1716.4
2014-Jul-28 12:32N 37°40' E 009°44'1616.3
2014-Jul-28 11:33N 37°41' E 010°04'1715.9
2014-Jul-28 10:30N 37°37' E 010°25'8016.2
2014-Jul-28 05:33N 37°04' E 011°57'1616.2
2014-Jul-28 04:33N 36°55' E 012°14'1615.8
2014-Jul-28 03:33N 36°47' E 012°31'1615.8
2014-Jul-28 02:32N 36°37' E 012°47'1615.9
2014-Jul-28 01:33N 36°29' E 013°03'1615.8
2014-Jul-28 00:33N 36°20' E 013°19'1616.1
2014-Jul-27 23:33N 36°11' E 013°36'1616.2
2014-Jul-27 22:33N 36°02' E 013°53'1616.4
2014-Jul-27 21:33N 35°53' E 014°10'1616.0
2014-Jul-27 20:33N 35°46' E 014°27'6 5.6
2014-Jul-27 19:31N 35°49' E 014°33'0 0.0
2014-Jul-27 18:25N 35°49' E 014°33'0 0.0
2014-Jul-27 17:31N 35°49' E 014°33'0 0.0
2014-Jul-27 16:34N 35°49' E 014°33'0 0.0
2014-Jul-27 15:33N 35°49' E 014°33'0 0.0
2014-Jul-27 14:33N 35°49' E 014°33'0 0.0
2014-Jul-27 13:32N 35°49' E 014°33'0 0.0
2014-Jul-27 12:29N 35°49' E 014°33'0 0.0
2014-Jul-27 11:31N 35°49' E 014°33'0 0.0
2014-Jul-27 10:28N 35°49' E 014°33'0 0.0
2014-Jul-27 09:27N 35°49' E 014°33'0 0.0
2014-Jul-27 08:33N 35°49' E 014°33'0 0.0
2014-Jul-27 07:30N 35°49' E 014°33'0 0.0
2014-Jul-27 06:32N 35°49' E 014°33'0 0.0
2014-Jul-27 05:32N 35°49' E 014°33'0 0.0
2014-Jul-27 04:31N 35°49' E 014°33'0 0.0
2014-Jul-27 03:31N 35°49' E 014°33'0 0.0
2014-Jul-27 02:34N 35°49' E 014°33'0 0.0
2014-Jul-26 22:32N 35°49' E 014°33'0 0.1
2014-Jul-26 21:32N 35°49' E 014°33'7 7.4
2014-Jul-26 20:33N 35°46' E 014°41'1615.7
2014-Jul-26 19:33N 35°42' E 014°59'1515.4
2014-Jul-26 18:33N 35°38' E 015°18'1616.4
2014-Jul-26 17:33N 35°34' E 015°37'1717.2
2014-Jul-26 16:33N 35°29' E 015°57'75117.0
2014-Jul-24 20:32N 32°08' E 030°28'5317.8
2014-Jul-24 17:33N 31°53' E 031°28'1817.9
2014-Jul-24 16:33N 31°48' E 031°48'1816.2
2014-Jul-24 15:26N 31°39' E 032°06'1516.7
2014-Jul-24 14:33N 31°29' E 032°19'1413.9
2014-Jul-24 13:33N 31°15' E 032°21'9 9.4
2014-Jul-24 12:33N 31°06' E 032°19'1210.0
2014-Jul-24 11:20N 30°54' E 032°19'7 8.7
2014-Jul-24 10:33N 30°47' E 032°19'34 7.7
2014-Jul-24 06:13N 30°15' E 032°31'25 7.9
2014-Jul-24 03:05N 29°51' E 032°33'1 0.1
2014-Jul-23 20:31N 29°50' E 032°34'2211.0
2014-Jul-23 18:30N 29°29' E 032°38'  
Track history (hours):
 
Tides and Currents Weather Stations Pressure Air Temp Water Temp Dewpoint Dewpoint Depression Visibility Wind Speed Wind Dir Waves Ship Positions

CMA CGM Balzac

Last reported at 2014-Jul-30 11:33 UTC. Time now 2014-Jul-31 03:17 UTC.
Position N 35°59' W 005°29'.

Length 300.3 m; beam 40.3 m; draft 14 m.

Type: Ship. MMSI: 211378810.

Date/timePositionNaut miles runAvg speedWind from/ knotsBaromVisibWave heightAir tempDewpointWater temp
2014-Jul-30 11:33N 35°59' W 005°29'27615.1
2014-Jul-29 17:14N 36°49' E 000°08'20416.0
2014-Jul-29 04:29N 37°22' E 004°21'1515.9
2014-Jul-29 03:32N 37°23' E 004°40'1515.7
2014-Jul-29 02:33N 37°24' E 004°59'3415.9
2014-Jul-29 00:25N 37°26' E 005°42'1416.0
2014-Jul-28 23:33N 37°27' E 005°59'1616.0
2014-Jul-28 22:33N 37°28' E 006°19'1615.9
2014-Jul-28 21:32N 37°29' E 006°40'8316.0
2014-Jul-28 16:22N 37°35' E 008°24'1517.3
2014-Jul-28 15:30N 37°36' E 008°43'1616.7
2014-Jul-28 14:33N 37°37' E 009°03'1616.5
2014-Jul-28 13:34N 37°38' E 009°23'1716.4
2014-Jul-28 12:32N 37°40' E 009°44'1616.3
2014-Jul-28 11:33N 37°41' E 010°04'1715.9
2014-Jul-28 10:30N 37°37' E 010°25'8016.2
2014-Jul-28 05:33N 37°04' E 011°57'1616.2
2014-Jul-28 04:33N 36°55' E 012°14'1615.8
2014-Jul-28 03:33N 36°47' E 012°31'1615.8
2014-Jul-28 02:32N 36°37' E 012°47'1615.9
2014-Jul-28 01:33N 36°29' E 013°03'1615.8
2014-Jul-28 00:33N 36°20' E 013°19'1616.1
2014-Jul-27 23:33N 36°11' E 013°36'1616.2
2014-Jul-27 22:33N 36°02' E 013°53'1616.4
2014-Jul-27 21:33N 35°53' E 014°10'1616.0
2014-Jul-27 20:33N 35°46' E 014°27'6 5.6
2014-Jul-27 19:31N 35°49' E 014°33'0 0.0
2014-Jul-27 18:25N 35°49' E 014°33'0 0.0
2014-Jul-27 17:31N 35°49' E 014°33'0 0.0
2014-Jul-27 16:34N 35°49' E 014°33'0 0.0
2014-Jul-27 15:33N 35°49' E 014°33'0 0.0
2014-Jul-27 14:33N 35°49' E 014°33'0 0.0
2014-Jul-27 13:32N 35°49' E 014°33'0 0.0
2014-Jul-27 12:29N 35°49' E 014°33'0 0.0
2014-Jul-27 11:31N 35°49' E 014°33'0 0.0
2014-Jul-27 10:28N 35°49' E 014°33'0 0.0
2014-Jul-27 09:27N 35°49' E 014°33'0 0.0
2014-Jul-27 08:33N 35°49' E 014°33'0 0.0
2014-Jul-27 07:30N 35°49' E 014°33'0 0.0
2014-Jul-27 06:32N 35°49' E 014°33'0 0.0
2014-Jul-27 05:32N 35°49' E 014°33'0 0.0
2014-Jul-27 04:31N 35°49' E 014°33'0 0.0
2014-Jul-27 03:31N 35°49' E 014°33'0 0.0
2014-Jul-27 02:34N 35°49' E 014°33'0 0.0
2014-Jul-26 22:32N 35°49' E 014°33'0 0.1
2014-Jul-26 21:32N 35°49' E 014°33'7 7.4
2014-Jul-26 20:33N 35°46' E 014°41'1615.7
2014-Jul-26 19:33N 35°42' E 014°59'1515.4
2014-Jul-26 18:33N 35°38' E 015°18'1616.4
2014-Jul-26 17:33N 35°34' E 015°37'1717.2
2014-Jul-26 16:33N 35°29' E 015°57'75117.0
2014-Jul-24 20:32N 32°08' E 030°28'5317.8
2014-Jul-24 17:33N 31°53' E 031°28'1817.9
2014-Jul-24 16:33N 31°48' E 031°48'1816.2
2014-Jul-24 15:26N 31°39' E 032°06'1516.7
2014-Jul-24 14:33N 31°29' E 032°19'1413.9
2014-Jul-24 13:33N 31°15' E 032°21'9 9.4
2014-Jul-24 12:33N 31°06' E 032°19'1210.0
2014-Jul-24 11:20N 30°54' E 032°19'7 8.7
2014-Jul-24 10:33N 30°47' E 032°19'34 7.7
2014-Jul-24 06:13N 30°15' E 032°31'25 7.9
2014-Jul-24 03:05N 29°51' E 032°33'1 0.1
2014-Jul-23 20:31N 29°50' E 032°34'2211.0
2014-Jul-23 18:30N 29°29' E 032°38'  

Dump ship's entire track history